THEMIS D

Last updated on Sat Apr 13 2024 01:02:32 GMT+0100 (British Summer Time)

1 30797U 07004D 24103.47121184 -.00000545 00000+0 00000+0 0 9998 2 30797 6.5912 265.2602 8321421 317.0178 3.2534 0.87834456 34089
UTC large
Height (km)
Speed (km/s)
/
Latitude / Longitude
Inclination (degrees)
Orbital Period (minutes)
Azimuth
Elevation
Range (km)
Doppler Factor

Next 0 passes for location: London (51.5072 / 0.1276)

Sorry there are no passes over London.